Location: Shenandoah County Park
(38.9356°N, 78.4524°W)
Time: 15:48:57
(UTC-05:00)

Tiros 1 - All Passes

Search period start: 01 December 2023 00:00
Search period end: 11 December 2023 00:00
Orbit: 626 x 659 km, 48.4° (Epoch: 30 November)

Date Brightness Start Highest point End Pass type
(mag) Time Alt. Az. Time Alt. Az. Time Alt. Az.
01 Dec - 04:28:56 10° S 04:32:50 25° SE 04:36:46 10° E visible
01 Dec - 06:09:53 10° WSW 06:14:39 68° NNW 06:19:26 10° NE visible
01 Dec - 07:53:12 10° WNW 07:57:22 29° N 08:01:31 10° NE daylight
01 Dec - 09:36:20 10° NW 09:40:30 29° N 09:44:38 10° ENE daylight
01 Dec - 11:18:26 10° NW 11:23:12 70° NNE 11:27:54 10° ESE daylight
01 Dec - 13:01:11 10° W 13:04:59 24° SW 13:08:44 10° S daylight
02 Dec - 04:52:30 10° SW 04:57:09 55° SE 05:01:50 10° ENE visible
02 Dec - 06:34:53 10° W 06:39:25 41° NNW 06:43:57 10° NE visible
02 Dec - 08:18:24 10° WNW 08:22:25 26° N 08:26:25 10° NE daylight
02 Dec - 10:00:58 10° NW 10:05:27 38° NNE 10:09:53 10° E daylight
02 Dec - 11:43:04 10° WNW 11:47:45 60° SW 11:52:23 10° SE daylight
03 Dec - 03:36:17 10° S 03:39:56 22° SE 03:43:38 10° E visible
03 Dec - 05:16:54 10° WSW 05:21:41 76° NNW 05:26:29 10° NE visible
03 Dec - 07:00:08 10° WNW 07:04:20 30° NNW 07:08:33 10° NE daylight
03 Dec - 08:43:20 10° NW 08:47:28 28° N 08:51:34 10° ENE daylight
03 Dec - 10:25:29 10° NW 10:30:14 63° NNE 10:34:55 10° ESE daylight
03 Dec - 12:08:04 10° WNW 12:12:05 28° SW 12:16:03 10° SSE daylight
04 Dec - 03:59:38 10° SW 04:04:13 48° SE 04:08:49 10° ENE visible
04 Dec - 05:41:49 10° W 05:46:24 44° NNW 05:51:00 10° NE visible
04 Dec - 07:25:20 10° WNW 07:29:22 26° N 07:33:23 10° NE daylight
04 Dec - 09:08:00 10° NW 09:12:25 36° NNE 09:16:49 10° E daylight
04 Dec - 10:50:04 10° WNW 10:54:48 69° SW 10:59:29 10° SE daylight
04 Dec - 12:34:27 10° WSW 12:36:13 12° SW 12:37:58 10° SSW daylight
05 Dec - 02:43:40 10° S 02:47:02 19° SE 02:50:26 10° E night (unlit)
05 Dec - 04:23:55 10° WSW 04:28:41 84° NNW 04:33:30 10° ENE visible
05 Dec - 06:07:02 10° WNW 06:11:18 31° NNW 06:15:33 10° NE visible
05 Dec - 07:50:19 10° NW 07:54:25 27° N 07:58:29 10° ENE daylight
05 Dec - 09:32:30 10° NW 09:37:13 57° NNE 09:41:54 10° ESE daylight
05 Dec - 11:14:57 10° WNW 11:19:09 32° SW 11:23:19 10° SSE daylight
06 Dec - 03:06:47 10° SSW 03:11:16 42° SE 03:15:47 10° ENE visible
06 Dec - 04:48:45 10° W 04:53:22 47° NNW 04:58:01 10° NE visible
06 Dec - 06:32:16 10° WNW 06:36:18 26° N 06:40:20 10° NE visible
06 Dec - 08:15:00 10° NW 08:19:23 34° NNE 08:23:44 10° E daylight
06 Dec - 09:57:03 10° WNW 10:01:50 77° SW 10:06:33 10° SE daylight
06 Dec - 11:40:51 10° W 11:43:19 14° SW 11:45:46 10° SSW daylight
07 Dec - 01:51:07 10° S 01:54:07 17° SE 01:57:08 10° E night (unlit)
07 Dec - 03:30:55 10° SW 03:35:42 87° SE 03:40:30 10° ENE visible
07 Dec - 05:13:55 10° W 05:18:13 32° NNW 05:22:33 10° NE visible
07 Dec - 06:57:15 10° NW 07:01:20 27° N 07:05:23 10° ENE daylight
07 Dec - 08:39:31 10° NW 08:44:12 52° NNE 08:48:51 10° ESE daylight
07 Dec - 10:21:51 10° WNW 10:26:13 36° SW 10:30:32 10° SSE daylight
08 Dec - 02:13:57 10° SSW 02:18:18 37° SE 02:22:42 10° ENE night (unlit)
08 Dec - 03:55:40 10° WSW 04:00:19 52° NNW 04:05:01 10° NE visible
08 Dec - 05:39:08 10° WNW 05:43:12 27° N 05:47:16 10° NE visible
08 Dec - 07:21:59 10° NW 07:26:18 32° NNE 07:30:37 10° E daylight
08 Dec - 09:04:02 10° WNW 09:08:49 86° SW 09:13:35 10° SE daylight
08 Dec - 10:47:26 10° W 10:50:24 16° SW 10:53:19 10° S daylight
09 Dec - 00:58:39 10° SSE 01:01:11 14° SE 01:03:44 10° E night (unlit)
09 Dec - 02:37:56 10° SW 02:42:40 78° SE 02:47:29 10° ENE night (unlit)
09 Dec - 04:20:47 10° W 04:25:08 34° NNW 04:29:31 10° NE visible
09 Dec - 06:04:11 10° NW 06:08:14 26° N 06:12:16 10° ENE visible
09 Dec - 07:46:30 10° NW 07:51:09 48° NNE 07:55:46 10° E daylight
09 Dec - 09:28:45 10° WNW 09:33:14 41° SW 09:37:41 10° SSE daylight
10 Dec - 01:21:08 10° SSW 01:25:19 32° SE 01:29:34 10° ENE night (unlit)
10 Dec - 03:02:35 10° WSW 03:07:16 57° NNW 03:11:59 10° NE visible
10 Dec - 04:46:01 10° WNW 04:50:06 27° N 04:54:11 10° NE visible
10 Dec - 06:28:57 10° NW 06:33:13 31° NNE 06:37:28 10° ENE visible
10 Dec - 08:10:59 10° WNW 08:15:48 85° NE 08:20:34 10° ESE daylight
10 Dec - 09:54:06 10° W 09:57:26 19° SW 10:00:45 10° S daylight
